[[{"header":{"parameterUnit":"m.s-1","parameterCategory":1,"la1":30.2992,"la2":30.254,"lo1":-89.0895,"lo2":-89.0443,"dy":0.0025,"dx":0.0025,"nx":19,"ny":19,"refTime":"2026-05-09T03:00:00:Z","depth":0,"parameterNumber":2,"parameterNumberName":"U-component_of_WINDS"},"data":[0,0,0,-4.4363,-4.4364,-4.4396,-4.4396,-4.4477,-4.4478,0,0,0,0,0,0,0,0,0,0,0,-4.4377,-4.4379,-4.4363,-4.4364,-4.4396,-4.4396,-4.4477,-4.4478,0,0,0,0,0,0,0,0,0,0,0,-4.4377,-4.4378,-4.438,-4.4364,-4.4396,-4.4396,-4.4477,-4.4438,0,0,0,0,0,0,0,0,0,0,-4.44,-4.4437,-4.4378,-4.438,-4.4365,-4.4396,-4.4396,-4.4436,-4.4441,-4.448,0,-4.4521,0,-4.4501,-4.4486,-4.4487,0,0,0,-4.4346,-4.4433,-4.442,-4.438,-4.4365,-4.4396,-4.4377,-4.4438,-4.4444,-4.4487,-4.4521,-4.4523,-4.4502,-4.4487,-4.4488,-4.4774,-4.4776,0,0,-4.4344,-4.4396,-4.4417,-4.4425,-4.4422,-4.4376,-4.4378,-4.4441,-4.4482,-4.4522,-4.4525,-4.4504,-4.4488,-4.4489,-4.4772,-4.4775,0,0,0,-4.4351,-4.4396,-4.438,-4.4423,-4.4426,-4.4377,-4.4379,-4.4479,-4.447,-4.4525,-4.4505,-4.4488,-4.449,-4.477,-4.4773,-4.4933,0,0,0,-4.4349,-4.4399,-4.438,-4.4412,-4.4425,-4.4453,-4.4418,-4.4466,-4.4471,-4.4504,-4.4488,-4.4491,-4.4767,-4.4772,-4.4924,-4.5001,0,0,0,-4.4367,-4.4401,-4.4414,-4.4415,-4.443,-4.4451,-4.4444,-4.4466,-4.446,-4.4487,-4.4491,-4.4766,-4.4771,-4.4915,-4.4987,-4.5094,0,0,0,-4.4401,-4.4555,-4.4418,-4.4582,-4.4431,-4.4549,-4.4443,-4.4528,-4.457,-4.4489,-4.4768,-4.4773,-4.4912,-4.4978,-4.5085,-4.5196,-4.5246,0,0,-4.4624,-4.4583,-4.4676,-4.4554,-4.4711,-4.454,-4.4719,-4.4708,-4.4663,-4.474,-4.4746,-4.4927,-4.4986,-4.5092,-4.5504,-4.5545,0,0,0,-4.4764,-4.4832,-4.4862,-4.4905,-4.49,-4.4904,-4.486,-4.4856,-4.4919,-4.4713,-4.4991,-4.5025,-4.5085,-4.5136,-4.517,-4.522,-4.4798,-4.4797,-4.4797,-4.5156,-4.509,-4.524,-4.5179,-4.5222,-4.5176,-4.5205,-4.5192,-4.5112,-4.5179,-4.5203,-4.546,-4.5522,-4.5547,-4.56,-4.5253,-4.5254,-4.5254,-4.5254,-4.5479,-4.5566,-4.5457,-4.5563,-4.5494,-4.5582,-4.5544,-4.5485,-4.5558,-4.5437,-4.5487,-4.5363,-4.5593,-4.5636,-4.5266,-4.5264,-4.5262,-4.5261,-4.5261,-4.5731,-4.5761,-4.5754,-4.581,-4.5862,-4.5793,-4.587,-4.5802,-4.5739,-4.5788,-4.5807,-4.5804,-4.5796,-4.5801,-4.5802,-4.5803,-4.5804,-4.5805,-4.5805,-4.5996,-4.5982,-4.6055,-4.6065,-4.6084,-4.6102,-4.6057,-4.6075,-4.6077,-4.6022,-4.6022,-4.5939,-4.5627,-4.5552,-4.5819,-4.5816,-4.5815,-4.5813,-4.5812,-4.6353,-4.6262,-4.6374,-4.6395,-4.6401,-4.6458,-4.637,-4.6412,-4.6417,-4.6457,-4.6362,-4.6141,-4.6095,-4.6067,-4.6005,-4.6373,-4.6373,-4.6373,-4.6373,-4.6568,-4.6537,-4.6638,-4.6675,-4.6703,-4.6636,-4.6767,-4.6735,-4.6687,-4.6686,-4.6622,-4.6533,-4.6507,-4.6476,-4.644,-4.6381,-4.6836,-4.6837,-4.6837,-4.6785,-4.6755,-4.6879,-4.6831,-4.6832,-4.6834,-4.6956,-4.7004,-4.6929,-4.6854,-4.6685,-4.6665,-4.652,-4.6475,-4.6399,-4.6344,-4.6234,0,0]},{"header":{"parameterUnit":"m.s-1","parameterCategory":1,"la1":30.2992,"la2":30.254,"lo1":-89.0895,"lo2":-89.0443,"dy":0.0025,"dx":0.0025,"nx":19,"ny":19,"refTime":"2026-05-09T03:00:00:Z","depth":0,"parameterNumber":3,"parameterNumberName":"V-component_of_WINDS"},"data":[0,0,0,-2.8841,-2.8843,-2.891,-2.891,-2.8988,-2.8989,0,0,0,0,0,0,0,0,0,0,0,-2.8819,-2.8819,-2.8841,-2.8843,-2.891,-2.891,-2.8988,-2.8989,0,0,0,0,0,0,0,0,0,0,0,-2.8819,-2.8819,-2.882,-2.8843,-2.891,-2.891,-2.8988,-2.894,0,0,0,0,0,0,0,0,0,0,-2.8875,-2.8853,-2.8819,-2.882,-2.8843,-2.891,-2.891,-2.8937,-2.8943,-2.8955,0,-2.8968,0,-2.898,-2.8994,-2.8994,0,0,0,-2.8844,-2.8849,-2.8869,-2.882,-2.8844,-2.891,-2.888,-2.894,-2.8946,-2.8962,-2.8969,-2.8972,-2.8981,-2.8994,-2.8995,-2.9067,-2.9068,0,0,-2.884,-2.8829,-2.8865,-2.8873,-2.8865,-2.8878,-2.8882,-2.8944,-2.895,-2.8969,-2.8974,-2.8982,-2.8995,-2.8995,-2.9067,-2.9067,0,0,0,-2.8829,-2.8826,-2.8846,-2.887,-2.8882,-2.888,-2.8885,-2.8947,-2.8954,-2.8975,-2.8983,-2.8995,-2.8996,-2.9067,-2.9067,-2.9071,0,0,0,-2.8827,-2.882,-2.8844,-2.8838,-2.8881,-2.8916,-2.8886,-2.895,-2.8957,-2.8983,-2.8995,-2.8997,-2.9067,-2.9067,-2.907,-2.9074,0,0,0,-2.8815,-2.8819,-2.8828,-2.8837,-2.8866,-2.8915,-2.8926,-2.8952,-2.8963,-2.8994,-2.8997,-2.9066,-2.9067,-2.907,-2.9073,-2.909,0,0,0,-2.8799,-2.8829,-2.8827,-2.8864,-2.8865,-2.8918,-2.8926,-2.8965,-2.8993,-2.8996,-2.9067,-2.9067,-2.9069,-2.9073,-2.9089,-2.9102,-2.9107,0,0,-2.8831,-2.8833,-2.8855,-2.8855,-2.8906,-2.8908,-2.8958,-2.8993,-2.9005,-2.9045,-2.9047,-2.907,-2.9073,-2.909,-2.9136,-2.914,0,0,0,-2.8861,-2.8877,-2.8892,-2.8919,-2.8948,-2.8972,-2.9,-2.9013,-2.9048,-2.9024,-2.9081,-2.9083,-2.9094,-2.91,-2.9103,-2.9112,-2.907,-2.907,-2.907,-2.8889,-2.8904,-2.8942,-2.8965,-2.899,-2.9019,-2.9041,-2.9062,-2.9069,-2.9082,-2.9094,-2.9121,-2.9128,-2.9131,-2.914,-2.9102,-2.9102,-2.9102,-2.9102,-2.8936,-2.8961,-2.897,-2.901,-2.9024,-2.9057,-2.9085,-2.9089,-2.912,-2.9113,-2.9123,-2.9114,-2.9134,-2.9143,-2.9103,-2.9103,-2.9103,-2.9103,-2.9103,-2.8956,-2.8971,-2.8987,-2.9026,-2.9054,-2.9076,-2.9106,-2.9118,-2.9129,-2.9138,-2.9152,-2.9152,-2.9153,-2.9144,-2.9144,-2.9144,-2.9144,-2.9144,-2.9144,-2.8971,-2.8989,-2.9014,-2.9046,-2.9064,-2.9089,-2.9118,-2.9136,-2.9158,-2.9164,-2.9164,-2.9169,-2.9134,-2.9124,-2.9146,-2.9146,-2.9145,-2.9145,-2.9145,-2.9013,-2.9006,-2.9044,-2.9062,-2.91,-2.9127,-2.9142,-2.9176,-2.9192,-2.9206,-2.9209,-2.9181,-2.9183,-2.9181,-2.9173,-2.9206,-2.9206,-2.9206,-2.9206,-2.903,-2.9033,-2.9075,-2.9103,-2.9132,-2.9149,-2.9189,-2.9211,-2.9232,-2.9242,-2.9239,-2.923,-2.9227,-2.9231,-2.9227,-2.9221,-2.9265,-2.9265,-2.9265,-2.9057,-2.9063,-2.9096,-2.9118,-2.9149,-2.9174,-2.9212,-2.9242,-2.9263,-2.9267,-2.925,-2.9248,-2.9233,-2.9228,-2.9232,-2.9226,-2.9214,0,0]}]]